Helicity
143 158 136 121 125 18 -3 24 47 39 50 125 159 220 53 31 -74 -100 -77 -103 -86 -49 -55 -24 29 65 67 109 122 90 91 86
78 96 88 93 61 27 -18 29 12 14 3 57 28 -13 -46 -67 -73 -102 -117 -115 -80 -51 -8 19 49 106 127 133 145 125 107 126
133 52 36 59 12 -20 33 75 40 25 -52 -57 -46 31 -20 -72 -101 -143 -136 -97 -53 -8 43 71 109 138 167 185 199 179 135 190
212 142 55 44 -26 -98 -52 -62 -78 -93 -93 -100 -61 -68 -136 -175 -163 -141 -116 -83 -31 35 79 124 149 158 162 168 185 192 190 213
228 182 117 78 -7 -121 -102 -101 -85 -128 -138 -149 -154 -149 -159 -149 -138 -107 -90 -38 1 37 65 119 165 160 179 191 194 212 230 224
264 209 172 78 70 -4 -65 -58 -44 -74 -88 -78 -83 -100 -88 -77 -57 -50 -43 -23 24 84 108 134 188 186 190 209 227 214 212 268
203 182 169 120 107 88 23 -14 -28 -24 -41 -43 -25 -5 -32 -35 -6 9 15 27 47 85 126 142 172 209 217 213 224 232 261 349
257 173 167 157 169 156 104 63 27 13 19 26 35 34 19 32 56 56 104 101 87 112 159 184 223 218 236 261 259 283 299 312
258 264 250 212 178 176 160 130 95 85 90 92 82 52 30 2 27 57 75 124 147 181 210 262 277 232 255 294 319 296 305 317
207 218 258 270 228 206 193 193 165 142 139 93 72 49 48 57 112 164 232 240 230 252 257 297 324 295 269 313 316 315 305 305
230 234 248 302 338 288 264 226 218 242 230 178 138 133 130 138 169 200 224 315 333 349 277 254 255 301 375 373 333 323 306 287
245 255 242 295 339 340 319 283 250 236 212 202 175 167 175 234 283 306 368 322 265 159 147 257 325 366 383 350 328 315 266 311
130 231 258 292 365 376 366 337 304 251 262 235 200 192 169 337 369 391 332 209 226 93 265 381 385 335 339 318 363 314 295 275
127 82 42 106 211 288 336 332 381 414 418 279 233 380 364 397 405 267 234 256 96 221 293 310 314 313 341 336 314 302 269 280
128 169 162 148 189 263 321 337 449 435 367 321 360 342 304 309 400 467 386 346 357 349 318 314 311 335 342 318 271 339 305 268
106 217 248 277 236 243 329 408 514 479 409 425 380 271 245 283 366 430 411 401 367 362 352 367 357 343 326 342 305 248 275 278
168 262 303 318 294 309 337 378 429 500 500 427 382 392 397 362 358 365 376 367 372 379 398 406 383 325 325 342 344 345 324 280
256 279 331 312 354 389 374 371 351 336 360 366 401 435 447 392 363 360 326 352 374 390 363 341 339 344 319 321 324 328 307 268
212 250 359 405 430 416 443 403 365 354 361 357 383 406 388 360 335 314 330 334 307 324 341 345 354 323 312 294 301 290 295 296
Wind_Speed
28 27 29 27 29 39 20 23 26 30 18 24 20 21 19 26 40 62 79 77 73 65 57 47 35 21 15 4 7 19 26 21
32 33 37 37 46 51 33 38 42 36 41 32 36 33 80 77 79 76 74 71 62 46 39 32 27 20 8 2 13 23 28 31
35 41 43 45 54 61 63 65 69 75 82 82 82 81 80 79 76 75 71 63 44 38 30 32 19 9 5 7 19 37 38 32
40 44 48 50 57 61 64 70 74 77 79 77 75 73 71 68 67 68 67 60 52 42 40 24 14 11 8 10 19 26 33 35
44 44 46 54 58 59 65 66 68 74 74 70 62 72 66 56 49 54 62 61 54 46 41 28 19 15 13 12 10 18 21 26
46 49 47 50 53 52 57 61 62 66 67 64 60 62 55 41 40 43 52 55 52 43 43 34 21 18 18 13 13 13 11 23
46 46 45 47 51 56 58 58 57 57 59 62 54 51 42 39 34 35 36 33 41 43 32 29 30 23 19 11 12 11 13 20
45 44 45 46 49 52 53 58 60 58 57 56 55 53 50 47 42 41 22 25 26 26 27 22 18 16 10 9 11 13 17 23
45 46 44 45 49 51 53 53 51 50 50 52 46 44 47 47 42 35 29 26 24 21 24 23 20 18 14 14 21 21 24 29
49 42 43 40 41 46 48 49 50 49 47 43 43 44 40 33 35 30 28 24 24 28 28 25 24 18 15 14 17 20 24 29
48 49 43 37 39 43 43 44 44 45 43 41 40 38 36 35 31 31 31 38 36 31 33 29 24 21 16 17 19 23 24 24
36 42 47 46 39 38 44 41 39 35 38 34 34 37 40 39 38 37 36 36 37 24 27 21 20 18 16 18 20 21 18 22
20 30 38 44 43 45 48 44 43 26 26 32 39 44 48 49 44 37 24 33 36 35 22 20 17 16 17 15 18 18 19 24
6 5 11 29 33 36 36 35 25 18 13 17 19 22 37 23 32 22 17 12 6 10 13 14 13 15 16 18 18 17 21 20
10 6 14 10 2 10 17 20 20 20 18 12 10 9 13 17 17 15 15 12 13 11 10 9 13 14 17 17 17 19 21 20
13 6 16 18 13 9 7 12 12 14 13 15 13 19 23 19 17 11 11 14 11 10 11 15 14 15 15 17 16 19 16 22
9 9 1 12 16 15 13 14 14 11 12 13 16 17 15 12 10 8 9 10 11 13 14 15 15 16 15 17 17 16 19 23
12 11 8 3 10 14 16 15 13 11 12 14 16 15 15 13 11 9 10 12 14 16 16 15 18 18 14 13 14 19 26 32
8 5 10 15 15 16 17 15 14 12 13 13 13 13 11 9 9 10 11 10 9 11 13 16 16 14 12 16 20 25 29 32
Wind_Direction
117 110 113 98 111 138 128 131 138 145 187 217 207 210 179 146 142 161 172 174 171 173 165 156 149 140 135 17 333 309 306 319
136 127 134 121 136 139 121 127 132 134 142 145 146 148 169 169 173 171 171 171 169 158 154 154 155 154 152 146 309 303 301 305
137 145 144 137 150 158 158 155 156 158 162 162 173 175 177 177 177 179 178 174 163 164 163 168 166 182 220 276 297 296 298 302
141 145 149 146 153 156 155 157 158 159 166 165 171 165 171 169 172 180 183 180 179 174 177 176 184 193 218 281 298 300 302 306
150 145 145 155 156 155 159 154 156 164 170 163 159 171 171 167 168 175 185 188 188 183 182 177 182 189 206 218 274 301 307 315
152 155 150 152 151 150 155 158 160 166 169 166 167 174 173 167 171 179 187 190 191 187 188 185 188 196 207 234 278 284 275 313
162 156 151 152 156 160 163 166 168 169 173 178 176 176 175 177 179 183 188 189 192 194 193 197 197 198 205 231 233 265 277 306
166 165 163 162 163 166 169 174 178 179 181 182 185 187 187 188 188 189 200 197 198 201 198 213 225 230 242 276 276 284 298 304
170 172 173 174 173 174 176 179 181 182 184 188 188 190 193 196 195 197 205 213 220 224 218 231 249 252 283 299 305 302 307 311
178 179 178 178 178 181 183 185 187 189 192 194 197 199 203 209 212 220 220 240 256 266 267 256 252 258 258 296 302 302 308 315
184 185 185 185 188 188 187 189 193 196 199 202 207 212 220 228 253 242 251 273 275 269 267 278 274 268 273 287 300 308 309 314
186 191 193 196 197 196 197 198 202 206 205 213 226 233 238 248 255 265 275 282 278 263 268 267 258 260 278 288 294 301 303 314
172 188 192 197 199 202 203 207 213 242 272 284 288 287 278 273 264 265 270 300 281 291 254 243 256 275 280 285 290 299 301 311
43 57 167 190 195 200 205 213 231 248 283 284 283 265 274 291 257 229 228 281 289 284 246 250 266 286 288 294 293 304 309 314
145 11 355 342 267 216 215 228 226 220 218 221 288 286 270 255 245 247 276 288 282 290 280 288 301 299 298 299 301 309 313 317
172 311 317 325 335 337 284 289 273 234 251 295 304 318 322 318 314 309 309 308 304 304 306 308 307 306 301 308 314 314 317 322
216 279 298 327 321 321 314 307 306 288 283 297 316 325 329 334 344 339 327 320 312 307 308 307 310 317 319 318 318 318 323 325
242 254 239 233 329 325 307 306 316 314 314 317 319 322 320 320 325 317 316 316 314 310 315 318 320 325 328 333 333 329 327 326
252 266 295 305 317 320 318 316 316 319 319 317 318 316 311 308 310 311 316 319 322 325 327 329 332 335 336 331 330 330 331 334